Tracking 20242 objects as of 24-Jan-2020
HD Live streaming from Space Station
objects crossing your sky now

COSMOS 2251 DEB

Track COSMOS 2251 DEB now!
10-day predictions


NORAD ID: 40796
Int'l Code: 1993-036BVZ
Perigee: 639.1 km
Apogee: 752.0 km
Inclination: 74.0 °
Period: 98.5 minutes
Semi major axis: 7066 km
RCS: Unknown
Launch date: June 16, 1993
Source: Commonwealth of Independent States (former USSR) (CIS)
Launch site: PLESETSK MISSILE AND SPACE COMPLEX (PKMTR)

Note: This is SATELLITE DEBRIS
aabbcc
Your satellite tracking list
Your tracking list is empty




NASA's NSSDC Master Catalog

Two Line Element Set (TLE):
1 40796U 93036BVZ 20022.14179398  .00000259  00000-0  56462-4 0  9998
2 40796  74.0220 338.0976 0079907 294.2329  76.7485 14.61480985446098
Source of the keplerian elements: AFSPC